Terug naar catalogus

ONEWEB-0598

ActiefCommunicatiePO
NORAD 55154·PAYLOAD·🇬🇧 United Kingdom

Gelanceerd Jan 10, 2023 vanaf Cape Canaveral Space Force Station

Loading…

Volgende Passages (komende 24 uur)

TLE

VersSource: CelesTrak SupGP

Epoch: Sep 14, 2026, 14:28 UTC

1 55154C 23004Q   26257.60330278  .00001588  00000+0  44870-2 0  2573
2 55154  87.8982   3.2911 0001260  82.9973  26.6460 13.11418984    12

Volg ONEWEB-0598 in realtime met AllMySat

Download on the App Store